CW2597 Weather Reports


Display with metric or nautical units.
time (UTC)temp
F
wind
direction
speed
MPH
gust
MPH
rain 1hr
in
rain 24hr
in
rain mn
in
humidity
%
barometer
mb
20260505223705 53 13 0.0 0.0 0.00 0.22 0.00 87 1008.2
20260505223511 53 50 0.0 0.0 0.00 0.00 0.00 86 1007.2
20260505223205 53 39 0.0 0.0 0.00 0.23 0.00 87 1008.2
20260505222705 53 31 0.0 0.0 0.00 0.23 0.00 87 1008.2
20260505222205 53 358 0.0 0.0 0.00 0.24 0.00 87 1008.3
20260505221205 53 330 0.0 0.0 0.00 0.24 0.00 88 1008.3
20260505220205 53 36 0.0 0.0 0.00 0.24 0.00 88 1008.3
20260505215705 53 40 0.0 0.0 0.00 0.25 0.24 88 1008.4
20260505215511 53 40 0.0 0.0 0.00 0.24 0.24 88 1007.3
20260505215205 53 41 0.0 1.0 0.00 0.25 0.24 88 1008.5
20260505214705 53 64 0.0 0.0 0.00 0.25 0.24 88 1008.5
20260505214511 53 358 0.0 0.0 0.00 0.24 0.24 88 1007.4
20260505213705 53 39 0.0 0.0 0.00 0.28 0.24 88 1008.5
20260505213205 53 34 0.0 0.0 0.00 0.30 0.24 88 1008.5
20260505212705 53 52 0.0 1.0 0.00 0.31 0.24 89 1008.5
20260505212511 53 54 0.0 1.0 0.00 0.24 0.24 89 1007.5
20260505212206 53 60 0.0 0.0 0.00 0.31 0.24 89 1008.5
20260505211511 53 40 0.0 0.0 0.00 0.24 0.24 89 1007.4
20260505210705 53 43 0.0 0.0 0.00 0.33 0.24 90 1008.5
20260505210511 53 358 0.0 0.0 0.00 0.24 0.24 90 1007.5
20260505205705 53 7 0.0 0.0 0.00 0.33 0.24 90 1008.5
20260505205511 53 7 0.0 0.0 0.00 0.24 0.24 90 1007.4
20260505204511 53 358 0.0 0.0 0.00 0.24 0.24 89 1007.5
20260505204206 53 358 0.0 0.0 0.00 0.33 0.24 89 1008.6
20260505203705 53 3 0.0 0.0 0.00 0.33 0.24 89 1008.6
20260505203511 53 3 0.0 0.0 0.00 0.24 0.24 89 1007.5
20260505203205 53 5 0.0 0.0 0.00 0.34 0.24 89 1008.6
20260505202705 53 13 0.0 0.0 0.00 0.34 0.24 89 1008.7
20260505202511 53 14 0.0 0.0 0.00 0.24 0.24 89 1007.6
20260505202205 53 13 0.0 0.0 0.00 0.34 0.24 89 1008.7
20260505201705 53 10 0.0 0.0 0.00 0.34 0.24 89 1008.7
20260505201512 53 335 0.0 0.0 0.00 0.24 0.24 89 1007.6
20260505201205 53 0 0.0 0.0 0.00 0.34 0.24 89 1008.7
20260505200705 53 357 0.0 0.0 0.00 0.34 0.24 89 1008.7
20260505200511 53 3 0.0 0.0 0.00 0.24 0.24 89 1007.6
20260505200205 53 358 0.0 0.0 0.00 0.34 0.24 89 1008.6
20260505195705 53 355 0.0 0.0 0.00 0.34 0.24 88 1008.6
20260505195205 53 356 0.0 0.0 0.00 0.34 0.24 88 1008.6
20260505194705 53 350 0.0 0.0 0.00 0.35 0.24 88 1008.6
20260505194510 53 350 0.0 0.0 0.00 0.24 0.24 88 1007.6
20260505193705 54 340 0.0 0.0 0.00 0.35 0.24 88 1008.6
20260505193511 54 345 0.0 0.0 0.00 0.24 0.24 88 1007.6
20260505193205 54 303 0.0 0.0 0.00 0.37 0.24 88 1008.7
20260505192205 54 7 0.0 0.0 0.00 0.38 0.24 87 1008.7
20260505191705 54 3 0.0 0.0 0.00 0.39 0.24 87 1008.6
20260505191511 54 4 0.0 0.0 0.00 0.24 0.24 87 1007.5
20260505191205 54 2 0.0 0.0 0.00 0.41 0.24 87 1008.5
20260505190705 54 4 0.0 0.0 0.00 0.43 0.24 87 1008.4
20260505190510 54 356 0.0 0.0 0.00 0.24 0.24 87 1007.4
20260505185705 54 1 0.0 0.0 0.00 0.49 0.24 86 1008.3
20260505185510 54 7 0.0 0.0 0.00 0.24 0.24 86 1007.3
20260505185205 54 6 0.0 0.0 0.00 0.50 0.24 86 1008.3
20260505184705 54 347 0.0 0.0 0.00 0.53 0.24 86 1008.3
20260505184511 54 350 0.0 0.0 0.00 0.24 0.24 86 1007.3
20260505184205 54 352 0.0 0.0 0.00 0.54 0.24 86 1008.3
20260505183705 54 15 0.0 0.0 0.00 0.54 0.24 86 1008.4
20260505183511 54 38 0.0 0.0 0.00 0.24 0.24 86 1007.4
20260505183205 54 16 0.0 0.0 0.00 0.54 0.24 86 1008.4
20260505182705 54 36 0.0 0.0 0.00 0.54 0.24 86 1008.4
20260505182510 54 24 0.0 0.0 0.00 0.24 0.24 86 1007.4
20260505182205 54 25 0.0 0.0 0.00 0.56 0.24 86 1008.4
20260505181705 54 356 0.0 0.0 0.00 0.56 0.24 86 1008.4
20260505181510 54 356 0.0 0.0 0.00 0.24 0.24 86 1007.3
20260505181205 54 76 0.0 0.0 0.00 0.56 0.24 86 1008.3
20260505180705 54 21 0.0 0.0 0.00 0.56 0.24 86 1008.3
20260505180510 54 33 0.0 0.0 0.00 0.24 0.24 86 1007.3
20260505175705 54 75 0.0 0.0 0.00 0.56 0.24 86 1008.3
20260505175510 54 76 0.0 0.0 0.00 0.24 0.24 86 1007.3
20260505175205 54 59 0.0 0.0 0.00 0.56 0.24 86 1008.4
20260505174704 54 91 0.0 0.0 0.00 0.56 0.24 86 1008.4
20260505174510 54 91 0.0 0.0 0.00 0.24 0.24 85 1007.4
20260505174204 55 42 0.0 0.0 0.00 0.56 0.24 86 1008.4
20260505173704 55 25 0.0 0.0 0.00 0.56 0.24 85 1008.4
20260505173204 55 24 0.0 0.0 0.00 0.56 0.24 85 1008.4
20260505172705 55 337 0.0 0.0 0.00 0.56 0.24 85 1008.4
20260505172205 55 48 0.0 0.0 0.00 0.56 0.24 85 1008.4
20260505171510 54 54 0.0 0.0 0.00 0.24 0.24 84 1007.4
20260505171205 54 350 0.0 0.0 0.00 0.56 0.24 85 1008.5
20260505170705 54 124 0.0 0.0 0.00 0.56 0.24 84 1008.6
20260505170510 54 135 0.0 0.0 0.00 0.24 0.24 84 1007.5
20260505170204 54 18 0.0 0.0 0.00 0.56 0.24 84 1008.7
20260505165705 54 59 0.0 0.0 0.00 0.56 0.24 84 1008.7
20260505165205 55 23 0.0 0.0 0.00 0.56 0.24 84 1008.7
20260505164705 55 93 0.0 0.0 0.00 0.56 0.24 84 1008.7
20260505164510 55 40 0.0 0.0 0.00 0.24 0.24 84 1007.6
20260505164205 55 64 0.0 0.0 0.00 0.56 0.24 84 1008.7
20260505163704 55 29 0.0 0.0 0.00 0.56 0.24 84 1008.7
20260505163510 55 25 0.0 0.0 0.00 0.24 0.24 84 1007.6
20260505163205 55 349 0.0 0.0 0.00 0.56 0.24 84 1008.7
20260505162511 54 350 0.0 0.0 0.00 0.24 0.24 84 1007.6
20260505162205 54 21 0.0 0.0 0.00 0.56 0.24 84 1008.7
20260505161510 54 323 0.0 0.0 0.00 0.24 0.24 84 1007.7
20260505161205 54 335 0.0 0.0 0.00 0.56 0.24 84 1008.7
20260505160705 54 345 0.0 0.0 0.00 0.56 0.24 85 1008.7
20260505160205 54 5 0.0 0.0 0.00 0.56 0.24 85 1008.7
20260505153205 54 16 0.0 0.0 0.00 0.56 0.24 86 1009.0
20260505152705 54 21 0.0 0.0 0.00 0.56 0.24 86 1009.1
20260505152510 54 345 0.0 0.0 0.00 0.24 0.24 86 1008.0
20260505152204 54 12 0.0 0.0 0.00 0.56 0.24 86 1009.1
20260505151705 54 352 0.0 0.0 0.00 0.56 0.24 86 1009.2
20260505151205 54 356 0.0 0.0 0.00 0.56 0.24 86 1009.2
20260505150705 54 354 0.0 0.0 0.00 0.56 0.24 86 1009.3
20260505150510 54 25 0.0 0.0 0.00 0.24 0.24 87 1008.3
20260505150205 54 350 0.0 0.0 0.00 0.56 0.24 87 1009.3
20260505140510 53 9 0.0 0.0 0.00 0.24 0.24 89 1008.6
20260505140205 53 340 0.0 0.0 0.00 0.57 0.24 90 1009.7
20260505130204 51 271 0.0 0.0 0.00 0.57 0.24 91 1010.0
20260505124704 51 292 0.0 0.0 0.00 0.57 0.24 90 1010.1
20260505124510 51 14 0.0 0.0 0.00 0.24 0.24 90 1009.0
20260505124204 51 331 0.0 0.0 0.00 0.57 0.24 91 1010.1
20260505123705 51 358 0.0 0.0 0.00 0.57 0.24 91 1010.1
20260505123510 51 23 0.0 0.0 0.00 0.24 0.24 91 1009.0
20260505123204 51 340 0.0 0.0 0.00 0.57 0.24 91 1010.1
20260505122705 51 28 0.0 0.0 0.00 0.57 0.24 90 1010.1
20260505122205 51 6 0.0 0.0 0.00 0.57 0.24 90 1010.1
20260505121704 51 358 0.0 0.0 0.00 0.57 0.24 90 1010.2
20260505121510 51 345 0.0 0.0 0.00 0.24 0.24 90 1009.1
20260505121204 50 350 0.0 0.0 0.00 0.57 0.24 90 1010.2
20260505120705 50 26 0.0 0.0 0.00 0.57 0.24 89 1010.2
20260505120510 50 231 0.0 0.0 0.00 0.24 0.24 89 1009.1
20260505120204 51 341 0.0 0.0 0.00 0.57 0.24 89 1010.3
20260505115704 51 252 0.0 0.0 0.00 0.57 0.24 90 1010.3
20260505115510 51 359 0.0 0.0 0.00 0.24 0.24 89 1009.3
20260505115204 50 55 0.0 0.0 0.00 0.57 0.24 89 1010.3
20260505114705 50 357 0.0 0.0 0.00 0.57 0.24 89 1010.3
20260505114204 50 358 0.0 0.0 0.00 0.57 0.24 88 1010.3
20260505113704 50 296 0.0 0.0 0.00 0.57 0.24 88 1010.4
20260505113510 50 20 0.0 0.0 0.00 0.24 0.24 88 1009.4
20260505113204 50 21 0.0 0.0 0.00 0.57 0.24 88 1010.3
20260505112704 50 14 0.0 0.0 0.00 0.57 0.24 88 1010.3
20260505112510 50 340 0.0 0.0 0.00 0.24 0.24 88 1009.3
20260505112205 50 355 0.0 0.0 0.00 0.57 0.24 87 1010.4
20260505111510 50 358 0.0 0.0 0.00 0.24 0.24 87 1009.4
20260505111205 50 15 0.0 0.0 0.00 0.57 0.24 87 1010.4
20260505110704 50 42 0.0 0.0 0.00 0.57 0.24 87 1010.5
20260505102204 50 0 0.0 0.0 0.00 0.63 0.24 85 1010.7
20260505101704 50 354 0.0 0.0 0.00 0.63 0.24 85 1010.7
20260505101510 50 340 0.0 0.0 0.00 0.24 0.24 86 1009.7
20260505101204 50 357 0.0 0.0 0.00 0.63 0.24 86 1010.7
20260505100704 50 336 0.0 0.0 0.00 0.63 0.24 86 1010.7
20260505100204 50 15 0.0 0.0 0.00 0.63 0.24 87 1010.6
20260505095512 50 358 0.0 0.0 0.00 0.24 0.24 87 1009.6
20260505094512 49 294 0.0 0.0 0.00 0.24 0.24 88 1009.7
20260505093704 49 16 0.0 0.0 0.00 0.63 0.24 87 1010.8
20260505093512 49 10 0.0 0.0 0.00 0.24 0.24 87 1009.7
20260505093204 49 359 0.0 0.0 0.00 0.63 0.24 87 1010.8
20260505092704 49 357 0.0 0.0 0.00 0.63 0.24 87 1010.7
20260505092512 49 24 0.0 0.0 0.00 0.24 0.24 87 1009.7
20260505092204 49 336 0.0 0.0 0.00 0.63 0.24 88 1010.7
20260505091704 49 13 0.0 0.0 0.00 0.63 0.24 88 1010.8
20260505091515 49 331 0.0 0.0 0.00 0.24 0.24 88 1009.7
20260505091204 49 351 0.0 0.0 0.00 0.63 0.24 88 1010.8
20260505090704 49 9 0.0 0.0 0.00 0.63 0.24 88 1010.8
20260505090204 49 319 0.0 0.0 0.01 0.63 0.24 88 1010.9
20260505085704 49 4 0.0 0.0 0.01 0.63 0.24 88 1010.9
20260505085512 49 7 0.0 0.0 0.01 0.24 0.24 88 1009.9
20260505085204 48 358 0.0 0.0 0.01 0.63 0.24 88 1010.9
20260505084204 48 7 0.0 0.0 0.01 0.63 0.24 89 1010.9
20260505083704 48 359 0.0 0.0 0.01 0.63 0.24 89 1011.1
20260505083512 48 258 0.0 0.0 0.01 0.24 0.24 89 1010.0
20260505083204 48 297 0.0 0.0 0.01 0.63 0.24 90 1011.1
20260505082704 48 350 0.0 0.0 0.01 0.63 0.24 90 1011.0
20260505082512 48 15 0.0 0.0 0.01 0.24 0.24 90 1009.9
20260505082204 48 0 0.0 0.0 0.01 0.63 0.24 90 1011.0
20260505081704 48 8 0.0 0.0 0.01 0.63 0.24 90 1011.0
20260505081512 48 345 0.0 0.0 0.01 0.24 0.24 90 1009.9
20260505081204 48 5 0.0 0.0 0.01 0.63 0.24 91 1011.0
20260505080704 48 44 0.0 0.0 0.01 0.63 0.24 90 1010.9
20260505080512 48 67 0.0 0.0 0.01 0.24 0.24 90 1009.8
20260505080205 48 1 0.0 0.0 0.00 0.62 0.24 90 1010.9
20260505075704 48 314 0.0 0.0 0.00 0.62 0.24 90 1010.8
20260505075204 48 296 0.0 0.0 0.00 0.62 0.24 91 1010.8
20260505074704 48 349 0.0 0.0 0.00 0.62 0.24 91 1010.9
20260505074512 48 345 0.0 0.0 0.00 0.24 0.24 91 1009.8
20260505074204 48 326 0.0 0.0 0.00 0.62 0.24 91 1011.0
20260505073512 48 308 0.0 0.0 0.00 0.24 0.24 92 1010.0
20260505072512 48 308 0.0 0.0 0.00 0.24 0.24 91 1010.1
20260505072204 48 329 0.0 0.0 0.00 0.62 0.24 91 1011.2
20260505071704 47 25 0.0 0.0 0.00 0.62 0.24 91 1011.1
20260505071204 47 345 0.0 1.0 0.00 0.62 0.24 91 1011.1
20260505070704 48 26 0.0 2.0 0.00 0.62 0.24 92 1011.0
20260505070512 48 65 0.0 2.0 0.00 0.24 0.24 92 1010.0
20260505070203 48 345 0.0 1.0 0.00 0.62 0.24 92 1011.0
20260505065704 48 35 0.0 0.0 0.00 0.62 0.24 92 1010.9
20260505065511 48 17 0.0 0.0 0.00 0.24 0.24 92 1009.8
20260505065204 48 356 0.0 0.0 0.00 0.62 0.24 92 1010.8
20260505064704 48 358 0.0 0.0 0.00 0.62 0.24 93 1010.8
20260505064512 48 355 0.0 0.0 0.00 0.24 0.24 93 1009.8
20260505064204 48 352 0.0 0.0 0.00 0.62 0.24 92 1010.9
20260505063704 48 7 0.0 0.0 0.01 0.62 0.24 93 1010.9
20260505063511 48 230 0.0 0.0 0.01 0.24 0.24 93 1009.8
20260505063204 48 302 0.0 0.0 0.01 0.62 0.24 93 1010.9
20260505062204 48 352 0.0 0.0 0.01 0.62 0.24 93 1011.0
20260505061703 48 336 0.0 0.0 0.01 0.62 0.24 93 1011.0
20260505061511 48 48 0.0 0.0 0.01 0.24 0.24 93 1009.8
20260505061204 48 350 0.0 0.0 0.01 0.62 0.24 92 1010.9
20260505060704 48 5 0.0 0.0 0.02 0.62 0.24 93 1010.8
20260505060512 48 278 0.0 0.0 0.02 0.24 0.24 93 1009.8
20260505055704 48 9 0.0 0.0 0.02 0.62 0.24 93 1010.9
20260505055512 48 316 0.0 0.0 0.02 0.24 0.24 92 1009.9
20260505055204 48 9 0.0 0.0 0.02 0.62 0.24 92 1010.8
20260505054512 48 282 0.0 0.0 0.03 0.24 0.24 93 1009.9
20260505054204 47 9 0.0 0.0 0.03 0.62 0.24 92 1010.9
20260505053704 47 4 0.0 0.0 0.02 0.61 0.23 92 1010.9
20260505053511 47 5 0.0 0.0 0.03 0.23 0.23 92 1009.7
20260505053205 47 6 0.0 0.0 0.03 0.61 0.23 93 1010.9
20260505052704 47 22 0.0 0.0 0.03 0.61 0.23 93 1010.9
20260505052511 47 350 0.0 0.0 0.03 0.23 0.23 93 1009.7
20260505052204 47 357 0.0 0.0 0.03 0.61 0.23 92 1010.9
20260505051704 47 9 0.0 0.0 0.04 0.61 0.23 92 1010.8
20260505051511 47 9 0.0 0.0 0.04 0.23 0.23 92 1009.7
20260505050706 47 347 0.0 0.0 0.03 0.61 0.22 92 1010.9
20260505050512 47 5 0.0 0.0 0.03 0.22 0.22 93 1009.7
20260505050205 47 349 0.0 0.0 0.04 0.61 0.22 92 1010.8
20260505041706 48 3 0.0 0.0 0.02 0.57 0.19 93 1010.8
20260505041511 48 359 0.0 0.0 0.03 0.19 0.19 92 1009.8
20260505041206 48 17 0.0 0.0 0.03 0.57 0.19 92 1010.8
20260505040705 48 350 0.0 0.0 0.03 0.57 0.19 92 1010.8
20260505040512 48 350 0.0 0.0 0.04 0.19 0.19 92 1009.8
20260505040205 48 354 0.0 0.0 0.03 0.57 0.18 92 1010.8
20260505035705 48 350 0.0 0.0 0.04 0.57 0.18 93 1010.8
20260505035511 48 318 0.0 0.0 0.04 0.18 0.18 92 1009.7
20260505035205 48 1 0.0 0.0 0.04 0.57 0.18 93 1010.7
20260505034511 48 354 0.0 0.0 0.05 0.18 0.18 93 1009.8
20260505034206 48 345 0.0 0.0 0.05 0.57 0.18 93 1010.8
20260505033706 48 332 0.0 0.0 0.06 0.57 0.18 93 1010.8
20260505033512 48 350 0.0 0.0 0.06 0.18 0.18 93 1009.8
20260505033206 48 0 0.0 0.0 0.06 0.56 0.17 93 1010.8
20260505032511 48 7 0.0 0.0 0.06 0.17 0.17 93 1009.8
20260505031705 48 330 0.0 0.0 0.06 0.55 0.17 92 1011.0
20260505031511 48 336 0.0 0.0 0.05 0.16 0.16 92 1009.9
20260505031206 48 310 0.0 0.0 0.05 0.54 0.16 92 1011.0
20260505030705 48 337 0.0 0.0 0.05 0.54 0.16 92 1011.0
20260505030512 48 320 0.0 0.0 0.04 0.15 0.15 92 1010.0
20260505025511 48 350 0.0 0.0 0.04 0.14 0.14 92 1009.9
20260505025205 48 344 0.0 0.0 0.04 0.53 0.14 92 1010.9
20260505024705 49 357 0.0 0.0 0.03 0.52 0.13 93 1011.0
20260505024511 49 15 0.0 0.0 0.03 0.13 0.13 93 1009.9
20260505024206 49 338 0.0 0.0 0.03 0.52 0.13 93 1011.0
20260505023705 49 348 0.0 0.0 0.02 0.51 0.13 93 1011.0
20260505023512 49 28 0.0 0.0 0.03 0.13 0.13 93 1009.9
20260505023205 49 358 0.0 0.0 0.02 0.50 0.12 93 1010.9
20260505022706 49 352 0.0 0.0 0.02 0.50 0.12 92 1011.0
20260505022511 49 30 0.0 0.0 0.02 0.12 0.12 92 1009.9
20260505022206 49 319 0.0 1.0 0.02 0.50 0.12 92 1010.9
20260505021705 49 320 0.0 0.0 0.02 0.50 0.11 92 1011.0
20260505021511 49 46 0.0 0.0 0.02 0.11 0.11 92 1009.9
20260505021205 49 355 0.0 0.0 0.02 0.50 0.11 93 1010.9
20260505020706 49 4 0.0 0.0 0.02 0.50 0.11 93 1011.0
20260505020512 49 19 0.0 0.0 0.02 0.11 0.11 93 1009.9
20260505020206 49 11 0.0 0.0 0.02 0.50 0.11 93 1011.0
20260505015705 49 339 0.0 0.0 0.02 0.49 0.10 93 1011.0
20260505015511 49 335 0.0 0.0 0.02 0.10 0.10 93 1009.9
20260505015205 49 19 0.0 0.0 0.02 0.49 0.10 93 1011.0
20260505014706 49 9 0.0 0.0 0.02 0.49 0.10 92 1011.1
20260505013511 50 340 0.0 0.0 0.01 0.09 0.09 92 1010.1
20260505013205 50 340 0.0 0.0 0.01 0.48 0.09 92 1011.1
20260505012705 50 316 0.0 0.0 0.01 0.48 0.09 92 1011.1
20260505012512 50 301 0.0 0.0 0.01 0.09 0.09 93 1010.1
20260505011709 50 281 0.0 0.0 0.01 0.48 0.09 92 1011.2
20260505011511 50 291 0.0 0.0 0.01 0.09 0.09 92 1010.2
20260505010706 50 4 0.0 0.0 0.01 0.48 0.09 92 1011.2
20260505010206 50 355 0.0 0.0 0.02 0.48 0.09 92 1011.2
20260505005705 50 351 0.0 0.0 0.01 0.47 0.09 92 1011.3
20260505005206 50 307 0.0 0.0 0.01 0.47 0.09 92 1011.3
20260505004705 50 0 0.0 0.0 0.02 0.47 0.09 92 1011.3
20260505004511 50 354 0.0 0.0 0.02 0.09 0.09 92 1010.3
20260505004205 50 330 0.0 0.0 0.02 0.47 0.09 92 1011.3
20260505003705 50 8 0.0 0.0 0.02 0.47 0.09 92 1011.3
20260505003512 51 9 0.0 0.0 0.02 0.09 0.09 92 1010.3
20260505003205 51 25 0.0 0.0 0.02 0.47 0.09 92 1011.4
20260505002706 51 1 0.0 0.0 0.02 0.47 0.09 92 1011.4
20260505002511 51 269 0.0 0.0 0.03 0.09 0.09 92 1010.4
20260505002205 51 299 0.0 0.0 0.03 0.47 0.09 92 1011.4
20260505001705 51 9 0.0 0.0 0.03 0.47 0.09 92 1011.4
20260505001511 51 358 0.0 0.0 0.03 0.09 0.09 92 1010.5
20260505001205 51 295 0.0 0.0 0.03 0.47 0.09 92 1011.5
20260505000706 51 6 0.0 0.0 0.04 0.47 0.09 92 1011.5
20260505000205 51 10 0.0 0.0 0.04 0.46 0.08 92 1011.6
20260504235705 51 347 0.0 0.0 0.04 0.46 0.08 92 1011.6
20260504235205 51 312 0.0 0.0 0.05 0.46 0.08 92 1011.6
20260504234705 51 327 0.0 0.0 0.04 0.46 0.07 92 1011.6
20260504234511 51 323 0.0 0.0 0.04 0.07 0.07 92 1010.5
20260504234205 52 35 0.0 0.0 0.05 0.46 0.07 92 1011.6
20260504233511 52 340 0.0 0.0 0.04 0.06 0.06 92 1010.5
20260504233205 52 7 0.0 0.0 0.05 0.45 0.06 92 1011.6
20260504232707 52 1 0.0 0.0 0.05 0.45 0.06 92 1011.6
20260504232511 52 356 0.0 0.0 0.04 0.06 0.06 91 1010.6
20260504232205 52 336 0.0 0.0 0.05 0.44 0.06 91 1011.6
20260504231705 52 311 0.0 0.0 0.05 0.44 0.06 92 1011.6
20260504231511 52 311 0.0 0.0 0.05 0.06 0.06 92 1010.6
20260504231205 52 310 0.0 0.0 0.05 0.44 0.06 92 1011.7
20260504230511 52 310 0.0 0.0 0.05 0.05 0.05 91 1010.7
20260504225511 53 350 0.0 0.0 0.04 0.04 0.04 91 1010.7
20260504224705 53 6 0.0 0.0 0.05 0.42 0.03 91 1011.8
20260504224511 53 312 0.0 0.0 0.03 0.03 0.03 91 1010.7
20260504224206 53 318 0.0 0.0 0.05 0.41 0.02 91 1011.8